Plattsburgh, NY

3:24 PM EDT on July 28, 2016 (GMT -0400)
Plattsburgh International

Weather History for KPBG - November, 2011

Change the Weather History Date:

Monday, November 14, 2011

  Actual Average Record
Temperature  
Mean Temperature 55 °F 37 °F  
Max Temperature 62 °F 47 °F 64 °F (1959)
Min Temperature 48 °F 28 °F 12 °F (1971)
Degree Days  
Heating Degree Days 10 28  
Month to date heating degree days 293 353  
Since 1 July heating degree days 900 1136  
Cooling Degree Days 0 0  
Month to date cooling degree days 0  
Year to date cooling degree days 346  
Growing Degree Days 5 (Base 50)    
Moisture  
Dew Point 41 °F    
Average Humidity 66    
Maximum Humidity 89    
Minimum Humidity 43    
Precipitation  
Precipitation 0.05 in - 0.61 in (1975)
Month to date precipitation 0.66  
Year to date precipitation 36.69  
Sea Level Pressure  
Sea Level Pressure 29.66 in    
Wind  
Wind Speed 7 mph (SSE)    
Max Wind Speed 17 mph    
Max Gust Speed 22 mph    
Visibility 10 miles    
Events Rain    
T = Trace of Precipitation, MM = Missing Value Source: NWS Daily Summary

Daily Weather History Graph

Daily Weather History Graph

Search for Another Location

Airport or City:

Trip Planner

Search our weather history database for the weather conditions in past years. The results will help you decide how hot, cold, wet, or windy it might be!

Date:

Astronomy

Nov. 14, 2011 Rise Set
Actual Time 6:48 AM EST 4:27 PM EST
Civil Twilight 6:17 AM EST 4:58 PM EST
Nautical Twilight 5:42 AM EST 5:33 PM EST
Astronomical Twilight 5:07 AM EST 6:08 PM EST
Moon 7:28 PM EST (11/14) 10:08 AM EST (11/14)
Length of Visible Light 10h 41m
Length of Day
9h 38m
Waning Gibbous, 87% of the Moon is Illuminated
Nov 14
Waning Gibbous
Nov 18
Last Quarter
Nov 25
New
Dec 2
First Quarter
Dec 10
Full

Hourly Weather History & Observations

Time (EST) Temp. Dew Point Humidity Pressure Visibility Wind Dir Wind Speed Gust Speed Precip Events Conditions
12:53 AM 52.0 °F 36.0 °F 54% 29.72 in 10.0 mi South 4.6 mph - N/A   Overcast
1:53 AM 54.0 °F 35.1 °F 49% 29.72 in 10.0 mi South 6.9 mph - N/A   Mostly Cloudy
2:53 AM 50.0 °F 39.9 °F 68% 29.71 in 10.0 mi Calm Calm - 0.00 in   Overcast
3:53 AM 48.9 °F 41.0 °F 74% 29.69 in 10.0 mi SSE 6.9 mph - 0.01 in   Scattered Clouds
5:53 AM 51.1 °F 37.9 °F 61% 29.68 in 10.0 mi South 5.8 mph - N/A   Clear
7:53 AM 52.0 °F 37.0 °F 57% 29.67 in 10.0 mi SSE 5.8 mph - N/A   Mostly Cloudy
8:53 AM 55.0 °F 39.0 °F 55% 29.67 in 10.0 mi South 9.2 mph - N/A   Mostly Cloudy
9:53 AM 55.0 °F 39.0 °F 55% 29.67 in 10.0 mi South 10.4 mph - N/A   Mostly Cloudy
10:53 AM 57.9 °F 39.9 °F 51% 29.68 in 10.0 mi SE 12.7 mph - N/A   Mostly Cloudy
11:53 AM 62.1 °F 39.9 °F 44% 29.65 in 10.0 mi SE 12.7 mph - N/A   Mostly Cloudy
12:53 PM 60.1 °F 41.0 °F 49% 29.66 in 10.0 mi South 9.2 mph - N/A   Mostly Cloudy
1:53 PM 57.9 °F 41.0 °F 53% 29.65 in 10.0 mi SSE 10.4 mph - N/A   Partly Cloudy
2:53 PM 57.0 °F 41.0 °F 55% 29.65 in 10.0 mi South 11.5 mph - N/A   Clear
3:53 PM 57.0 °F 41.0 °F 55% 29.65 in 10.0 mi South 8.1 mph - N/A   Clear
4:53 PM 55.0 °F 42.1 °F 62% 29.64 in 10.0 mi SSE 6.9 mph - N/A   Clear
5:53 PM 55.0 °F 42.1 °F 62% 29.64 in 10.0 mi Calm Calm - N/A   Clear
6:53 PM 54.0 °F 43.0 °F 66% 29.62 in 10.0 mi SSE 4.6 mph - N/A   Mostly Cloudy
7:53 PM 52.0 °F 43.0 °F 71% 29.62 in 10.0 mi Calm Calm - N/A   Partly Cloudy
8:53 PM 51.1 °F 46.0 °F 83% 29.62 in 9.0 mi South 3.5 mph - 0.01 in Rain Light Rain
9:53 PM 52.0 °F 48.9 °F 89% 29.60 in 10.0 mi South 8.1 mph - 0.03 in   Overcast
10:53 PM 52.0 °F 48.9 °F 89% 29.57 in 10.0 mi SSE 5.8 mph - N/A   Overcast